Other Surface Observations
Issued by NWS Charleston, SC

Home | Current Version | Previous Version | Text Only | Print | Product List | Glossary On
Versions: 1 2 3 4 5 6 7 8 9 10 11 12 13 14 15 16 17 18 19 20 21 22 23 24 25 26 27 28 29 30 31 32 33 34 35 36 37 38 39 40 41 42 43 44 45 46 47 48 49 50
000
SXUS52 KCHS 241612
OSOCHS

MARINE OBSERVATIONS
NATIONAL WEATHER SERVICE CHARLESTON SC
1200 PM EDT SUN MAY 24 2015

...DOWNTOWN CHARLESTON AND HARBOR...

CITY           SKY/WX    TMP DP  RH WIND       PRES   REMARKS
WATERFRONT PRK   N/A     75  61  61 E13       30.35R
FORT JOHNSON   NOT AVBL

...LAKE MOULTRIE...

CITY           SKY/WX    TMP DP  RH WIND       PRES   REMARKS
PINOPOLIS        N/A     81  59  47 VRB3      30.31S

...LAKE AND SUPPLEMENTAL COASTAL OBSERVATIONS...

STATION/POSITION TIME  TEMP    WIND        PRES    WAVE   SWELL
                       AIR SEA DIR/SP/G            HT/PER HT/PER/DIR
                 (UTC) (F)     (DEG/KT/KT) (MB)    (FT/S) (FT/S/D)
FORT PULASKI     1500   75 78   70/ 15/ 17 1028.0R
SAPELO ISLAND    1500   81      70/  9     1027.0S
UPR LAKE MARION  NOT AVBL
WINYAH BAY       1445   75     100/ 12     1028.0
LAKE MURRAY      1500   74     130/  4/ 11 1028.4S
ACE BASIN NERRS  NOT AVBL


...C-MAN AND BUOY OBSERVATIONS...

STATION/POSITION TIME  TEMP    WIND        PRES    WAVE   SWELL
                       AIR SEA DIR/SP/G            HT/PER HT/PER/DIR
                 (UTC) (F)     (DEG/KT/KT) (MB)    (FT/S) (FT/S/D)
BUOY 41004       1550   75 75   80/ 16/ 19 1027.6R   5/ 8   3/ 8
BUOY 41008       1550   75 75   70/ 10/ 12 1026.8F   4/ 8   3/100/ 8
FOLLY BEACH CMAN 1600   76      80/ 14/ 16 1028.6S
CAPERS NS BUOY   1508   75      80/ 14/ 17 1028.8R
FRIPP NS BUOY    1500   76      70/ 14/ 17 1027.0R
5E ST. MARYS GA  1521      77                N/A     4/ 6


STATION/POSITION TIME  TEMP    WIND        PRES    WAVE   SWELL
                       AIR SEA DIR/SP/G            HT/PER HT/PER/DIR
                 (UTC) (F)     (DEG/KT/KT) (MB)    (FT/S) (FT/S/D)
FRYING PAN BUOY  1550   75 73  110/ 12/ 14 1029.8R   4/ 6   3/110/ 6
BUOY 41025       1550   73 78   50/  6/  8 1030.3F   2/ 8   2/ 60/ 8
CAPE LOOKOUT NC  1600   74      70/  7/  8 1029.7S
BUOY 41002       1550   72 74   70/ 19/ 21 1028.4R   6/ 6   2/ 30/12
BUOY 41010       1520   79 80   90/ 12/ 14 1024.5R
ST AUGUSTINE FL  1600   77 76   60/  9/  9 1025.8F

$$



USA.gov is the U.S. government's official web portal to all federal, state and local government web resources and services.